QPF
0.00 0.00 0.00 0.00 0.00 0.00 0.01 0.01 0.01 0.00 0.00 0.00 0.00 0.00 0.00 0.00 0.00 0.01 0.01 0.01 0.01 0.01 0.01 0.01 0.01 0.02 0.02 0.01 0.01 0.01 0.01 0.02 0.02 0.02 0.01 0.02 0.02 0.04 0.03 0.03 0.03 0.02 0.02 0.02
0.00 0.00 0.00 0.00 0.00 0.00 0.00 0.00 0.00 0.00 0.00 0.00 0.00 0.00 0.00 0.00 0.00 0.01 0.01 0.01 0.01 0.01 0.01 0.01 0.01 0.01 0.01 0.01 0.01 0.01 0.01 0.02 0.02 0.02 0.02 0.02 0.02 0.02 0.03 0.04 0.03 0.03 0.03 0.02
0.00 0.00 0.00 0.01 0.00 0.00 0.00 0.00 0.00 0.01 0.01 0.00 0.00 0.00 0.00 0.00 0.00 0.01 0.01 0.01 0.01 0.01 0.01 0.01 0.01 0.01 0.01 0.01 0.01 0.01 0.01 0.02 0.01 0.01 0.01 0.01 0.02 0.02 0.02 0.03 0.03 0.02 0.03 0.02
0.02 0.01 0.01 0.01 0.00 0.00 0.00 0.01 0.01 0.01 0.00 0.00 0.00 0.00 0.00 0.00 0.00 0.01 0.01 0.01 0.01 0.01 0.01 0.01 0.01 0.01 0.01 0.01 0.01 0.01 0.01 0.01 0.01 0.02 0.01 0.02 0.02 0.03 0.03 0.03 0.03 0.03 0.02 0.02
0.03 0.02 0.02 0.01 0.00 0.00 0.01 0.02 0.01 0.01 0.01 0.00 0.00 0.00 0.01 0.00 0.00 0.00 0.01 0.01 0.01 0.01 0.00 0.00 0.00 0.01 0.01 0.00 0.00 0.01 0.01 0.02 0.02 0.02 0.02 0.03 0.03 0.03 0.04 0.04 0.03 0.03 0.03 0.03
0.04 0.03 0.02 0.02 0.00 0.00 0.01 0.03 0.01 0.00 0.00 0.00 0.01 0.01 0.01 0.00 0.00 0.00 0.01 0.00 0.00 0.00 0.00 0.00 0.00 0.00 0.00 0.00 0.00 0.01 0.01 0.02 0.02 0.03 0.03 0.03 0.04 0.04 0.04 0.04 0.04 0.04 0.04 0.03
0.03 0.03 0.02 0.01 0.00 0.01 0.02 0.03 0.01 0.00 0.00 0.00 0.01 0.01 0.01 0.01 0.01 0.01 0.01 0.01 0.01 0.01 0.01 0.00 0.00 0.00 0.01 0.00 0.00 0.01 0.01 0.01 0.01 0.02 0.03 0.02 0.02 0.03 0.03 0.03 0.03 0.03 0.03 0.02
0.02 0.04 0.02 0.00 0.00 0.01 0.01 0.00 0.00 0.00 0.00 0.00 0.00 0.00 0.01 0.01 0.01 0.01 0.01 0.01 0.01 0.01 0.01 0.01 0.01 0.01 0.01 0.00 0.00 0.01 0.01 0.01 0.01 0.01 0.02 0.02 0.02 0.02 0.02 0.02 0.02 0.02 0.02 0.02
0.02 0.03 0.01 0.00 0.00 0.00 0.00 0.00 0.00 0.00 0.00 0.00 0.00 0.00 0.00 0.01 0.01 0.01 0.01 0.01 0.01 0.01 0.01 0.01 0.01 0.01 0.01 0.00 0.01 0.01 0.01 0.01 0.01 0.01 0.01 0.01 0.02 0.02 0.01 0.01 0.01 0.01 0.01 0.01
0.01 0.02 0.01 0.01 0.00 0.00 0.00 0.00 0.00 0.00 0.00 0.00 0.00 0.00 0.00 0.01 0.01 0.01 0.01 0.01 0.01 0.01 0.01 0.01 0.01 0.01 0.00 0.00 0.01 0.01 0.01 0.01 0.01 0.01 0.01 0.01 0.01 0.01 0.01 0.01 0.01 0.01 0.01 0.01
0.01 0.01 0.01 0.01 0.01 0.00 0.00 0.00 0.00 0.00 0.00 0.00 0.01 0.01 0.00 0.01 0.01 0.01 0.01 0.01 0.01 0.02 0.02 0.01 0.01 0.00 0.00 0.00 0.00 0.01 0.01 0.01 0.01 0.01 0.01 0.01 0.01 0.01 0.01 0.01 0.01 0.02 0.02 0.02
0.02 0.01 0.02 0.01 0.00 0.00 0.00 0.00 0.00 0.00 0.00 0.01 0.00 0.01 0.01 0.01 0.01 0.01 0.01 0.01 0.02 0.02 0.02 0.02 0.01 0.00 0.00 0.00 0.00 0.00 0.01 0.01 0.01 0.01 0.00 0.01 0.01 0.01 0.01 0.01 0.01 0.01 0.01 0.02
0.02 0.01 0.01 0.01 0.00 0.00 0.01 0.01 0.00 0.01 0.01 0.01 0.00 0.01 0.01 0.01 0.01 0.01 0.01 0.02 0.02 0.02 0.02 0.01 0.01 0.01 0.01 0.00 0.00 0.00 0.01 0.02 0.02 0.01 0.01 0.01 0.01 0.01 0.01 0.01 0.01 0.01 0.01 0.01
0.01 0.01 0.01 0.01 0.01 0.01 0.01 0.01 0.01 0.01 0.01 0.01 0.01 0.01 0.01 0.01 0.01 0.01 0.01 0.02 0.02 0.02 0.02 0.02 0.01 0.01 0.01 0.01 0.01 0.01 0.01 0.02 0.02 0.02 0.01 0.01 0.01 0.01 0.01 0.01 0.01 0.01 0.01 0.01
0.01 0.01 0.02 0.01 0.01 0.01 0.01 0.01 0.01 0.01 0.01 0.01 0.02 0.02 0.02 0.02 0.02 0.02 0.02 0.02 0.02 0.02 0.02 0.02 0.02 0.02 0.02 0.02 0.02 0.01 0.01 0.01 0.01 0.01 0.02 0.01 0.01 0.01 0.01 0.01 0.01 0.00 0.01 0.01
0.01 0.01 0.01 0.01 0.01 0.01 0.01 0.01 0.01 0.01 0.01 0.02 0.02 0.02 0.02 0.02 0.02 0.02 0.02 0.02 0.02 0.02 0.02 0.01 0.01 0.01 0.01 0.01 0.01 0.01 0.01 0.01 0.01 0.01 0.01 0.02 0.01 0.01 0.01 0.01 0.01 0.01 0.00 0.01
0.02 0.02 0.02 0.02 0.02 0.02 0.02 0.02 0.02 0.02 0.02 0.02 0.03 0.03 0.02 0.02 0.02 0.03 0.02 0.02 0.02 0.02 0.01 0.01 0.01 0.01 0.01 0.01 0.01 0.01 0.01 0.01 0.02 0.02 0.02 0.02 0.02 0.01 0.01 0.01 0.01 0.01 0.01 0.01
0.03 0.03 0.03 0.03 0.03 0.03 0.03 0.03 0.03 0.03 0.03 0.04 0.04 0.04 0.03 0.03 0.03 0.03 0.03 0.02 0.01 0.01 0.01 0.01 0.01 0.00 0.00 0.01 0.01 0.01 0.01 0.01 0.02 0.01 0.01 0.02 0.02 0.01 0.01 0.01 0.01 0.01 0.01 0.01
0.02 0.03 0.03 0.03 0.03 0.04 0.04 0.04 0.04 0.04 0.04 0.04 0.04 0.04 0.04 0.04 0.04 0.04 0.03 0.03 0.02 0.02 0.02 0.01 0.01 0.01 0.01 0.01 0.01 0.02 0.02 0.01 0.01 0.01 0.01 0.01 0.01 0.01 0.01 0.01 0.01 0.01 0.01 0.01
0.02 0.02 0.02 0.02 0.03 0.03 0.04 0.04 0.04 0.04 0.04 0.04 0.04 0.04 0.04 0.04 0.04 0.04 0.03 0.03 0.03 0.02 0.02 0.02 0.01 0.01 0.01 0.02 0.02 0.01 0.01 0.01 0.01 0.01 0.01 0.01 0.01 0.01 0.01 0.01 0.01 0.01 0.01 0.01
0.02 0.02 0.02 0.03 0.03 0.03 0.04 0.04 0.04 0.04 0.03 0.03 0.03 0.03 0.03 0.03 0.03 0.03 0.02 0.03 0.03 0.03 0.02 0.02 0.01 0.01 0.01 0.02 0.01 0.01 0.01 0.01 0.01 0.01 0.00 0.00 0.01 0.01 0.01 0.01 0.01 0.01 0.01 0.01
0.02 0.02 0.02 0.02 0.02 0.03 0.03 0.03 0.03 0.03 0.03 0.02 0.02 0.02 0.02 0.03 0.03 0.03 0.03 0.03 0.03 0.03 0.02 0.02 0.01 0.01 0.01 0.02 0.01 0.01 0.01 0.01 0.01 0.01 0.01 0.01 0.01 0.01 0.00 0.01 0.01 0.01 0.01 0.01
0.02 0.02 0.02 0.02 0.02 0.02 0.02 0.02 0.02 0.02 0.03 0.03 0.03 0.03 0.03 0.03 0.03 0.02 0.03 0.03 0.03 0.02 0.01 0.01 0.01 0.01 0.01 0.01 0.01 0.01 0.01 0.01 0.01 0.01 0.01 0.01 0.01 0.01 0.01 0.01 0.01 0.01 0.01 0.01
0.02 0.02 0.02 0.02 0.02 0.02 0.02 0.03 0.03 0.03 0.03 0.03 0.03 0.03 0.03 0.03 0.03 0.02 0.02 0.02 0.02 0.01 0.01 0.01 0.01 0.01 0.01 0.01 0.01 0.01 0.01 0.01 0.01 0.01 0.01 0.01 0.01 0.01 0.01 0.01 0.01 0.01 0.01 0.01
0.02 0.02 0.02 0.02 0.02 0.03 0.03 0.03 0.03 0.03 0.02 0.03 0.03 0.03 0.02 0.02 0.02 0.02 0.02 0.02 0.01 0.01 0.01 0.00 0.00 0.01 0.01 0.01 0.01 0.01 0.01 0.01 0.01 0.01 0.01 0.01 0.01 0.01 0.01 0.01 0.01 0.01 0.01 0.01
0.02 0.02 0.02 0.02 0.03 0.03 0.03 0.03 0.02 0.03 0.02 0.02 0.02 0.02 0.02 0.02 0.02 0.01 0.01 0.01 0.01 0.01 0.00 0.01 0.01 0.01 0.01 0.01 0.01 0.01 0.01 0.01 0.01 0.01 0.01 0.01 0.01 0.01 0.01 0.01 0.01 0.01 0.01 0.01
0.02 0.02 0.02 0.02 0.02 0.03 0.03 0.02 0.02 0.02 0.02 0.02 0.02 0.01 0.01 0.01 0.01 0.01 0.00 0.00 0.01 0.01 0.01 0.01 0.01 0.01 0.01 0.01 0.01 0.01 0.01 0.01 0.01 0.01 0.01 0.01 0.01 0.01 0.01 0.01 0.01 0.01 0.01 0.01
MSLP
1016.36 1016.15 1015.88 1015.53 1015.11 1014.63 1014.10 1013.55 1012.98 1012.42 1011.88 1011.39 1010.95 1010.57 1010.25 1009.97 1009.74 1009.55 1009.38 1009.22 1009.09 1009.00 1008.94 1008.95 1009.02 1009.18 1009.41 1009.71 1010.06 1010.42 1010.76 1011.05 1011.28 1011.41 1011.45 1011.41 1011.29 1011.12 1010.92 1010.72 1010.52 1010.34 1010.19 1010.07
1015.93 1015.64 1015.27 1014.85 1014.38 1013.88 1013.37 1012.87 1012.40 1011.98 1011.60 1011.28 1011.01 1010.78 1010.58 1010.39 1010.20 1010.00 1009.79 1009.58 1009.38 1009.21 1009.09 1009.04 1009.08 1009.20 1009.42 1009.70 1010.02 1010.36 1010.67 1010.94 1011.15 1011.27 1011.32 1011.30 1011.22 1011.10 1010.98 1010.85 1010.73 1010.62 1010.52 1010.44
1015.32 1014.98 1014.61 1014.19 1013.75 1013.32 1012.90 1012.51 1012.18 1011.90 1011.68 1011.50 1011.37 1011.25 1011.13 1010.98 1010.81 1010.60 1010.36 1010.10 1009.84 1009.61 1009.44 1009.34 1009.34 1009.43 1009.60 1009.85 1010.14 1010.43 1010.71 1010.95 1011.13 1011.24 1011.29 1011.28 1011.23 1011.16 1011.09 1011.01 1010.95 1010.89 1010.84 1010.79
1014.65 1014.33 1014.00 1013.67 1013.34 1013.04 1012.78 1012.55 1012.36 1012.23 1012.13 1012.06 1012.00 1011.92 1011.82 1011.67 1011.48 1011.23 1010.94 1010.62 1010.32 1010.04 1009.83 1009.69 1009.65 1009.70 1009.84 1010.04 1010.29 1010.55 1010.79 1011.00 1011.15 1011.26 1011.31 1011.32 1011.30 1011.27 1011.24 1011.21 1011.18 1011.16 1011.12 1011.08
1014.10 1013.83 1013.60 1013.41 1013.26 1013.14 1013.06 1013.00 1012.96 1012.94 1012.91 1012.88 1012.81 1012.71 1012.55 1012.33 1012.05 1011.73 1011.37 1010.99 1010.63 1010.32 1010.07 1009.90 1009.83 1009.84 1009.95 1010.12 1010.32 1010.55 1010.77 1010.96 1011.11 1011.22 1011.30 1011.35 1011.37 1011.38 1011.39 1011.39 1011.38 1011.37 1011.34 1011.30
1013.83 1013.63 1013.53 1013.51 1013.56 1013.64 1013.74 1013.84 1013.92 1013.96 1013.94 1013.87 1013.72 1013.50 1013.20 1012.85 1012.44 1011.99 1011.53 1011.08 1010.66 1010.30 1010.02 1009.83 1009.73 1009.72 1009.79 1009.93 1010.11 1010.31 1010.52 1010.71 1010.89 1011.04 1011.16 1011.26 1011.34 1011.40 1011.45 1011.48 1011.50 1011.49 1011.46 1011.41
1013.93 1013.82 1013.86 1014.02 1014.25 1014.52 1014.78 1015.00 1015.14 1015.18 1015.11 1014.92 1014.62 1014.21 1013.72 1013.16 1012.58 1011.97 1011.39 1010.84 1010.36 1009.96 1009.65 1009.43 1009.32 1009.28 1009.33 1009.44 1009.60 1009.79 1010.00 1010.22 1010.43 1010.63 1010.82 1010.99 1011.14 1011.27 1011.38 1011.45 1011.49 1011.50 1011.47 1011.42
1014.43 1014.41 1014.58 1014.89 1015.28 1015.70 1016.08 1016.37 1016.52 1016.51 1016.32 1015.97 1015.45 1014.81 1014.08 1013.30 1012.51 1011.73 1011.01 1010.37 1009.82 1009.37 1009.03 1008.79 1008.65 1008.59 1008.62 1008.70 1008.84 1009.03 1009.24 1009.48 1009.74 1010.00 1010.27 1010.52 1010.76 1010.97 1011.14 1011.27 1011.35 1011.39 1011.38 1011.34
1015.24 1015.31 1015.59 1016.02 1016.54 1017.06 1017.51 1017.81 1017.93 1017.82 1017.49 1016.94 1016.20 1015.31 1014.34 1013.34 1012.34 1011.40 1010.55 1009.82 1009.20 1008.71 1008.34 1008.07 1007.91 1007.82 1007.81 1007.86 1007.97 1008.14 1008.36 1008.62 1008.92 1009.24 1009.58 1009.92 1010.24 1010.53 1010.78 1010.97 1011.11 1011.18 1011.22 1011.21
1016.25 1016.40 1016.76 1017.28 1017.87 1018.44 1018.91 1019.19 1019.24 1019.03 1018.54 1017.81 1016.86 1015.77 1014.59 1013.39 1012.24 1011.16 1010.21 1009.40 1008.74 1008.21 1007.80 1007.51 1007.30 1007.18 1007.12 1007.13 1007.20 1007.33 1007.53 1007.79 1008.11 1008.47 1008.86 1009.27 1009.66 1010.02 1010.34 1010.60 1010.79 1010.93 1011.01 1011.05
1017.30 1017.51 1017.94 1018.50 1019.12 1019.71 1020.15 1020.39 1020.37 1020.05 1019.44 1018.57 1017.47 1016.23 1014.91 1013.59 1012.33 1011.18 1010.17 1009.32 1008.62 1008.07 1007.64 1007.31 1007.06 1006.88 1006.76 1006.71 1006.71 1006.79 1006.94 1007.17 1007.47 1007.84 1008.25 1008.69 1009.12 1009.54 1009.90 1010.21 1010.46 1010.65 1010.78 1010.88
1018.25 1018.52 1018.98 1019.56 1020.18 1020.73 1021.14 1021.33 1021.24 1020.85 1020.17 1019.22 1018.05 1016.74 1015.38 1014.02 1012.73 1011.57 1010.55 1009.69 1008.99 1008.43 1007.97 1007.61 1007.31 1007.07 1006.87 1006.73 1006.66 1006.65 1006.73 1006.89 1007.14 1007.47 1007.86 1008.29 1008.73 1009.15 1009.54 1009.87 1010.15 1010.38 1010.55 1010.69
1019.05 1019.36 1019.83 1020.39 1020.97 1021.48 1021.84 1021.97 1021.84 1021.42 1020.71 1019.75 1018.60 1017.32 1015.98 1014.66 1013.42 1012.30 1011.33 1010.50 1009.82 1009.26 1008.79 1008.39 1008.03 1007.72 1007.44 1007.21 1007.03 1006.93 1006.91 1006.98 1007.15 1007.41 1007.74 1008.11 1008.51 1008.90 1009.27 1009.60 1009.88 1010.11 1010.30 1010.47
1019.69 1020.02 1020.48 1021.00 1021.52 1021.96 1022.26 1022.35 1022.19 1021.76 1021.08 1020.18 1019.10 1017.91 1016.67 1015.46 1014.32 1013.29 1012.39 1011.62 1010.97 1010.42 1009.94 1009.50 1009.10 1008.72 1008.36 1008.03 1007.75 1007.54 1007.42 1007.39 1007.45 1007.61 1007.85 1008.14 1008.46 1008.78 1009.10 1009.38 1009.62 1009.83 1010.01 1010.17
1020.22 1020.56 1020.97 1021.43 1021.88 1022.24 1022.47 1022.51 1022.33 1021.93 1021.30 1020.49 1019.52 1018.46 1017.37 1016.30 1015.29 1014.37 1013.56 1012.85 1012.24 1011.70 1011.21 1010.74 1010.29 1009.85 1009.42 1009.01 1008.64 1008.34 1008.11 1007.98 1007.94 1007.99 1008.12 1008.30 1008.53 1008.76 1008.99 1009.20 1009.38 1009.54 1009.67 1009.79
1020.71 1021.03 1021.40 1021.78 1022.13 1022.40 1022.55 1022.54 1022.34 1021.96 1021.40 1020.67 1019.83 1018.91 1017.97 1017.04 1016.16 1015.36 1014.63 1013.98 1013.40 1012.87 1012.37 1011.88 1011.39 1010.89 1010.41 1009.94 1009.51 1009.13 1008.83 1008.60 1008.47 1008.42 1008.44 1008.52 1008.64 1008.77 1008.90 1009.02 1009.12 1009.20 1009.27 1009.33
1021.22 1021.51 1021.82 1022.11 1022.36 1022.53 1022.59 1022.52 1022.30 1021.92 1021.41 1020.77 1020.03 1019.23 1018.42 1017.61 1016.84 1016.12 1015.46 1014.86 1014.29 1013.76 1013.24 1012.72 1012.20 1011.68 1011.15 1010.65 1010.18 1009.75 1009.40 1009.12 1008.91 1008.78 1008.72 1008.71 1008.73 1008.76 1008.80 1008.83 1008.84 1008.84 1008.84 1008.83
1021.78 1022.04 1022.28 1022.48 1022.63 1022.69 1022.66 1022.52 1022.26 1021.87 1021.38 1020.79 1020.13 1019.42 1018.69 1017.97 1017.27 1016.61 1015.98 1015.39 1014.83 1014.29 1013.75 1013.21 1012.66 1012.11 1011.57 1011.05 1010.56 1010.12 1009.74 1009.42 1009.17 1008.99 1008.87 1008.78 1008.73 1008.69 1008.65 1008.60 1008.54 1008.47 1008.40 1008.33
1022.36 1022.59 1022.77 1022.90 1022.95 1022.92 1022.80 1022.59 1022.27 1021.86 1021.37 1020.80 1020.17 1019.51 1018.83 1018.15 1017.49 1016.84 1016.22 1015.62 1015.04 1014.47 1013.91 1013.34 1012.78 1012.22 1011.67 1011.14 1010.65 1010.20 1009.81 1009.48 1009.21 1009.00 1008.83 1008.70 1008.60 1008.51 1008.41 1008.31 1008.21 1008.10 1007.98 1007.86
1022.92 1023.13 1023.27 1023.33 1023.31 1023.20 1023.01 1022.73 1022.36 1021.92 1021.41 1020.83 1020.22 1019.57 1018.91 1018.24 1017.58 1016.92 1016.29 1015.66 1015.05 1014.45 1013.85 1013.25 1012.67 1012.09 1011.53 1011.00 1010.50 1010.05 1009.65 1009.31 1009.03 1008.79 1008.60 1008.45 1008.31 1008.19 1008.08 1007.96 1007.83 1007.69 1007.56 1007.42
1023.40 1023.59 1023.71 1023.73 1023.67 1023.51 1023.26 1022.93 1022.53 1022.05 1021.52 1020.94 1020.31 1019.66 1019.00 1018.32 1017.65 1016.97 1016.31 1015.65 1015.00 1014.36 1013.72 1013.09 1012.47 1011.87 1011.28 1010.73 1010.22 1009.75 1009.33 1008.96 1008.65 1008.39 1008.18 1008.00 1007.85 1007.72 1007.60 1007.48 1007.36 1007.23 1007.10 1006.97
1023.74 1023.94 1024.05 1024.06 1023.97 1023.79 1023.52 1023.17 1022.74 1022.25 1021.71 1021.12 1020.49 1019.84 1019.16 1018.48 1017.78 1017.09 1016.39 1015.70 1015.01 1014.33 1013.65 1012.97 1012.31 1011.66 1011.03 1010.44 1009.88 1009.36 1008.90 1008.48 1008.12 1007.82 1007.57 1007.36 1007.20 1007.06 1006.95 1006.84 1006.74 1006.65 1006.54 1006.43
1023.95 1024.15 1024.27 1024.28 1024.20 1024.02 1023.75 1023.40 1022.98 1022.50 1021.96 1021.37 1020.75 1020.10 1019.43 1018.74 1018.03 1017.32 1016.61 1015.88 1015.16 1014.43 1013.70 1012.98 1012.26 1011.54 1010.85 1010.18 1009.54 1008.95 1008.40 1007.91 1007.47 1007.10 1006.79 1006.54 1006.35 1006.20 1006.09 1006.00 1005.93 1005.87 1005.80 1005.73
1024.04 1024.25 1024.38 1024.41 1024.34 1024.18 1023.93 1023.61 1023.21 1022.75 1022.24 1021.68 1021.08 1020.44 1019.78 1019.10 1018.40 1017.68 1016.95 1016.20 1015.45 1014.68 1013.90 1013.11 1012.33 1011.54 1010.75 1009.99 1009.25 1008.54 1007.88 1007.28 1006.74 1006.27 1005.88 1005.57 1005.32 1005.15 1005.03 1004.95 1004.91 1004.87 1004.85 1004.81
1024.07 1024.28 1024.41 1024.46 1024.41 1024.28 1024.07 1023.78 1023.42 1023.00 1022.52 1022.00 1021.43 1020.83 1020.19 1019.53 1018.83 1018.12 1017.38 1016.62 1015.84 1015.03 1014.21 1013.36 1012.50 1011.62 1010.74 1009.86 1008.99 1008.16 1007.37 1006.63 1005.97 1005.39 1004.89 1004.49 1004.18 1003.96 1003.81 1003.73 1003.69 1003.68 1003.68 1003.67
1024.12 1024.31 1024.43 1024.49 1024.46 1024.35 1024.17 1023.92 1023.61 1023.23 1022.80 1022.31 1021.78 1021.22 1020.61 1019.97 1019.30 1018.59 1017.85 1017.08 1016.28 1015.45 1014.57 1013.67 1012.73 1011.77 1010.78 1009.79 1008.81 1007.84 1006.91 1006.05 1005.25 1004.54 1003.93 1003.42 1003.03 1002.74 1002.55 1002.44 1002.39 1002.38 1002.40 1002.41
1024.22 1024.38 1024.49 1024.53 1024.51 1024.42 1024.27 1024.05 1023.77 1023.44 1023.05 1022.61 1022.12 1021.59 1021.01 1020.40 1019.74 1019.05 1018.32 1017.55 1016.73 1015.87 1014.96 1014.01 1013.01 1011.98 1010.91 1009.82 1008.72 1007.64 1006.59 1005.60 1004.68 1003.84 1003.12 1002.51 1002.03 1001.66 1001.41 1001.25 1001.16 1001.14 1001.14 1001.16
Thickness
5469 5477 5477 5478 5482 5484 5481 5483 5483 5497 5503 5510 5512 5511 5511 5510 5510 5511 5510 5510 5510 5510 5510 5510 5509 5508 5508 5506 5505 5504 5501 5499 5498 5496 5495 5493 5491 5488 5484 5481 5478 5476 5474 5472
5449 5463 5465 5467 5474 5477 5479 5482 5484 5488 5493 5501 5501 5501 5500 5499 5500 5500 5499 5500 5501 5501 5502 5501 5500 5500 5499 5498 5497 5495 5493 5491 5490 5488 5487 5485 5483 5481 5478 5474 5471 5469 5467 5465
5433 5450 5449 5449 5466 5470 5470 5474 5476 5473 5480 5486 5485 5487 5486 5486 5488 5487 5488 5489 5489 5490 5491 5492 5492 5492 5491 5490 5488 5486 5484 5483 5482 5480 5479 5477 5476 5473 5470 5467 5464 5461 5459 5457
5418 5426 5421 5454 5468 5468 5466 5468 5468 5469 5471 5472 5473 5474 5477 5477 5475 5474 5476 5478 5479 5480 5482 5483 5484 5484 5483 5481 5479 5477 5476 5475 5474 5472 5471 5470 5468 5466 5463 5460 5457 5454 5452 5450
5405 5411 5427 5450 5453 5454 5451 5452 5456 5456 5457 5459 5461 5462 5464 5467 5465 5465 5466 5468 5469 5471 5473 5474 5475 5475 5473 5471 5470 5468 5467 5467 5465 5464 5463 5461 5459 5457 5455 5452 5449 5446 5444 5442
5400 5402 5413 5438 5443 5448 5444 5436 5444 5444 5443 5443 5443 5440 5449 5454 5454 5455 5457 5459 5460 5462 5464 5465 5465 5465 5464 5462 5461 5460 5459 5458 5457 5455 5454 5452 5451 5449 5446 5444 5441 5439 5436 5434
5392 5395 5410 5426 5430 5433 5420 5421 5430 5431 5430 5428 5427 5429 5436 5440 5442 5444 5446 5448 5450 5452 5453 5455 5456 5456 5454 5453 5453 5452 5450 5449 5447 5445 5444 5443 5442 5440 5437 5435 5432 5429 5427 5426
5387 5387 5398 5415 5412 5408 5409 5414 5416 5416 5417 5416 5417 5420 5423 5426 5428 5431 5434 5437 5439 5440 5442 5444 5446 5446 5445 5444 5444 5442 5441 5439 5437 5435 5434 5434 5432 5430 5428 5425 5423 5421 5419 5417
5383 5390 5400 5400 5399 5398 5398 5398 5400 5401 5403 5403 5405 5408 5411 5414 5417 5420 5422 5425 5427 5428 5430 5432 5434 5435 5435 5434 5433 5433 5431 5429 5427 5426 5425 5424 5422 5420 5418 5416 5413 5412 5410 5408
5371 5381 5384 5386 5386 5387 5387 5386 5388 5389 5391 5392 5394 5397 5400 5403 5406 5409 5411 5413 5415 5416 5418 5421 5423 5424 5425 5424 5423 5422 5420 5419 5417 5415 5414 5413 5412 5410 5408 5405 5403 5402 5400 5398
5359 5367 5371 5375 5373 5373 5375 5376 5376 5378 5380 5382 5384 5387 5390 5393 5396 5399 5401 5402 5404 5406 5408 5411 5413 5414 5414 5414 5413 5411 5409 5407 5406 5405 5403 5401 5400 5398 5397 5396 5394 5393 5391 5389
5349 5355 5353 5357 5359 5360 5361 5363 5366 5368 5371 5374 5375 5378 5381 5384 5387 5389 5391 5392 5393 5395 5398 5399 5401 5402 5403 5403 5402 5400 5398 5396 5395 5393 5392 5390 5388 5387 5386 5385 5385 5383 5382 5381
5342 5344 5343 5346 5347 5349 5350 5352 5355 5358 5361 5364 5368 5370 5372 5375 5377 5379 5381 5382 5383 5385 5387 5388 5388 5389 5391 5391 5391 5389 5387 5385 5384 5383 5381 5379 5377 5376 5375 5374 5373 5373 5372 5371
5331 5330 5331 5334 5334 5337 5339 5342 5345 5349 5352 5355 5358 5361 5363 5365 5367 5369 5370 5372 5373 5375 5376 5376 5377 5377 5378 5378 5378 5377 5375 5374 5373 5372 5370 5369 5367 5366 5365 5364 5362 5361 5361 5361
5318 5318 5319 5321 5324 5326 5329 5331 5335 5339 5343 5345 5348 5351 5353 5355 5356 5358 5360 5362 5363 5364 5365 5365 5365 5366 5366 5367 5366 5365 5364 5362 5361 5360 5359 5358 5357 5355 5354 5353 5352 5351 5350 5350
5306 5308 5309 5311 5313 5315 5317 5320 5323 5328 5331 5334 5337 5340 5342 5344 5345 5347 5349 5351 5352 5353 5354 5355 5355 5355 5355 5355 5355 5354 5353 5352 5351 5349 5348 5347 5346 5345 5344 5342 5341 5341 5340 5339
5294 5297 5299 5301 5303 5305 5307 5309 5312 5316 5320 5323 5326 5329 5331 5333 5334 5336 5337 5339 5340 5341 5342 5343 5343 5344 5344 5345 5344 5343 5342 5341 5340 5339 5337 5337 5336 5334 5333 5332 5331 5330 5329 5329
5287 5288 5289 5291 5293 5295 5298 5300 5303 5306 5310 5313 5315 5318 5319 5321 5323 5324 5325 5327 5329 5329 5330 5331 5332 5333 5333 5333 5333 5332 5331 5330 5329 5328 5327 5326 5325 5324 5323 5322 5321 5320 5319 5318
5279 5280 5281 5283 5284 5286 5288 5290 5293 5296 5299 5302 5304 5305 5307 5308 5311 5312 5314 5315 5317 5317 5318 5319 5321 5321 5321 5321 5321 5321 5320 5319 5318 5317 5316 5316 5315 5313 5313 5312 5311 5310 5309 5308
5271 5272 5272 5274 5275 5276 5278 5281 5283 5285 5288 5290 5292 5293 5295 5296 5298 5300 5302 5303 5304 5305 5306 5307 5308 5309 5309 5309 5310 5309 5308 5308 5307 5306 5306 5305 5304 5303 5303 5302 5301 5300 5299 5298
5262 5263 5264 5265 5266 5267 5269 5271 5273 5275 5278 5279 5281 5282 5283 5284 5286 5288 5290 5291 5292 5293 5294 5296 5296 5297 5297 5298 5298 5298 5297 5297 5296 5296 5295 5294 5293 5293 5292 5291 5291 5290 5289 5287
5253 5254 5255 5256 5257 5258 5260 5262 5263 5265 5267 5269 5270 5271 5272 5274 5275 5276 5277 5278 5280 5282 5283 5284 5285 5286 5287 5287 5286 5286 5286 5285 5285 5285 5284 5283 5283 5282 5281 5281 5280 5279 5278 5277
5245 5246 5247 5248 5248 5249 5250 5252 5254 5255 5256 5257 5258 5260 5261 5262 5263 5265 5266 5266 5268 5271 5272 5273 5275 5276 5276 5276 5275 5275 5275 5274 5274 5274 5273 5273 5272 5272 5271 5271 5270 5269 5268 5267
5236 5237 5238 5239 5240 5241 5242 5243 5244 5245 5246 5247 5248 5249 5250 5251 5252 5252 5254 5256 5258 5260 5261 5262 5265 5265 5265 5264 5263 5263 5263 5263 5263 5263 5263 5263 5262 5262 5261 5261 5260 5259 5258 5257
5227 5228 5229 5230 5231 5232 5233 5234 5235 5236 5238 5238 5239 5240 5240 5241 5241 5242 5243 5245 5248 5250 5250 5251 5253 5254 5252 5252 5252 5252 5252 5252 5253 5253 5253 5253 5252 5252 5252 5252 5251 5250 5249 5248
5219 5220 5221 5222 5222 5223 5224 5225 5226 5227 5229 5230 5230 5230 5231 5231 5232 5233 5234 5236 5237 5239 5239 5240 5240 5241 5241 5241 5241 5242 5243 5243 5243 5243 5243 5243 5243 5243 5243 5243 5242 5241 5241 5240
5211 5212 5213 5214 5214 5215 5215 5216 5217 5218 5219 5220 5221 5221 5222 5223 5224 5225 5226 5227 5228 5228 5229 5230 5230 5231 5231 5232 5232 5233 5234 5234 5234 5235 5235 5235 5235 5235 5235 5234 5234 5234 5233 5233